Location: Dover
(48.8500°N, 53.9833°W)
Time: 17:49:24
(UTC+00:00)

BREEZE-M DEB (TANK) - Pass Details

Date: 14 November 2025
Orbit: 304 x 15917 km, 49.3° (Epoch: 09 December)

Event Time Altitude Azimuth Distance (km) Brightness Sun altitude
Rises 21:48:39 0° 247° (WSW) 2,095 6.7 -18.4°
Reaches altitude 10° 21:49:59 10° 245° (WSW) 1,417 5.5 -18.6°
Maximum altitude 21:52:37 72° 159° (SSE) 614 2.4 -19.0°
Enters shadow 21:54:14 38° 85° (E) 1,134 3.3 -19.3°
